Regional Weather Roundup
Issued by NWS Green Bay, WI

Home | Current Version | Previous Version | Graphics & Text | Print | Product List | Glossary Off
Versions: 1 2 3 4 5 6 7 8 9 10 11 12 13 14 15 16 17 18 19 20 21 22 23 24 25 26 27 28 29 30 31 32 33 34 35 36 37 38 39 40 41 42 43 44 45 46 47 48 49 50

000
ASUS43 KGRB 281259
RWRGRB

NORTH-CENTRAL AND NORTHEAST WISCONSIN REGIONAL WEATHER ROUNDUP
NATIONAL WEATHER SERVICE GREEN BAY WI
700 AM CST WED JAN 28 2015

WIZ005-009-010>012-018-019-281400-
NORTH CENTRAL WISCONSIN

CITY           SKY/WX    TMP DP  RH WIND       PRES   REMARKS
IRONWOOD       CLOUDY    25  21  86 SE8       30.02F
MANITOWISH WTR NOT AVBL
ARBOR VITAE    NOT AVBL
EAGLE RIVER    NOT AVBL
LAND O LAKES   NOT AVBL
RHINELANDER    CLOUDY    22  20  92 S7        30.10S FOG
PHILLIPS       NOT AVBL
ANTIGO         NOT AVBL
TOMAHAWK       NOT AVBL
MERRILL        NOT AVBL
$$

WIZ013-073-281400-
NORTHEAST WISCONSIN

CITY           SKY/WX    TMP DP  RH WIND       PRES   REMARKS
IRON MOUNTAIN  CLOUDY    21  15  78 S7        30.15S
MARINETTE      CLOUDY    19  16  86 SW7       30.23S
$$

WIZ017-030-035>037-045-281400-
CENTRAL WISCONSIN

CITY           SKY/WX    TMP DP  RH WIND       PRES   REMARKS
MEDFORD        NOT AVBL
WAUSAU         CLOUDY    24  20  84 S12       30.13S
MOSINEE        CLOUDY    25  23  93 S10       30.15S
MARSHFIELD     CLOUDY    25  22  88 S15       30.12F FOG
WISC RAPIDS    CLOUDY    25  21  85 SE7       30.16F
STEVENS POINT  NOT AVBL
WAUPACA        NOT AVBL
SHAWANO        NOT AVBL
CLINTONVILLE   NOT AVBL
$$

WIZ038-039-048-051-281400-
FOX VALLEY

CITY           SKY/WX    TMP DP  RH WIND       PRES   REMARKS
NWS GREEN BAY  PTCLDY    17  14  88 S5        30.24R WCI  10
APPLETON       MOCLDY    23  18  80 S8        30.22S
OSHKOSH        CLOUDY    22  16  78 S7        30.22S
FOND DU LAC    CLOUDY    22  16  78 S8        30.23S
$$

WIZ022-050-052-281400-
EAST CENTRAL WISCONSIN

CITY           SKY/WX    TMP DP  RH WIND       PRES   REMARKS
STURGEON BAY   PTCLDY    19  12  73 S6        30.25S
MANITOWOC      NOT AVBL
SHEBOYGAN      PTCLDY    19  15  84 CALM      30.24S
$$

LMZ563-521-522-541>543-281400-
LAKESHORE

STATION/POSITION TIME  TEMP    WIND        PRES    VSBY  WAVE
                       AIR SEA DIR/SP/G                  HT/PER
                 (UTC) (F)     (DEG/KT/KT) (MB)    (MI)  (FT/S)
SHEBOYGAN LKSHOR 1200   28     160/ 10/ 11 1025.3R
KEWAUNEE LKSHORE 1200   20     260/  2/  5 1022.9F
NORTHPORT PIER   1200   18      CALM  /  4 1024.4R
SISTER BAY LKSHO 1200   18     160/  5/  8   N/A
CHAMBERS ISLAND  1200   22     180/  3/  8 1024.0R
MENOMINEE LKSHOR 1200   17     170/  4     1024.3F
$$



USA.gov is the U.S. government's official web portal to all federal, state and local government web resources and services.